STARLINK-35929, 66625

Orbit data source: Space-Track

STARLINK-35929, 66625 is a payload satellite owned by SpaceX/Seattle (US) in LEO that was launched on Sun, 23 Nov 2025 UTC via an FALCON 9 launch vehicle from the Air Force Western Test Range (AFWTR). Payload-class satellites include a variety of spacecraft equipped with specific instruments for various scientific and technological missions. These include communications satellites like Starlink; space stations such as the ISS; scientific satellites like the Hubble; Earth observation satellites from companies like Planet Labs, Umbra, and HawkEye 360; GPS; miniature CubeSats for education and research; and military/defense satellites.

Loading next visibility...
Identifier
66625, 2025-271J
Orbit
LEO
Country
Flag of USUS
Related business
Manufacturer
SpaceX/Seattle
Mission
Operational Commercial Communications
Bus & Motor
STARLINK V2MO, Unknown motor
Mass
575 kg wet, ~530 kg dry
Launch date (UTC)
2025-11-23 (1 month ago)
Launch vehicle
FALCON 9
Launch site
Air Force Western Test Range (AFWTR)
Object type
Payload
Rocket body
Debris
Shape & HBR
Box + 2 Pan, 17.7 m
Radar Cross Section
36.964 m²

Expand to show TLE details & history
Last TLE update: 9 hours ago

TLE from 9 hours ago
0 STARLINK-35929
1 66625U 25271J   25355.25001157  .00064316  00000-0  16064-2 0  9992
2 66625  53.1593 146.6734 0000731 102.1451 252.6134 15.39580188  5612
Epoch: 2025-12-21T06:00Z
TLE epoch observation values (Epoch: 2025-12-21T06:00:00.999Z)
Latitude
-4.30544°
Longitude
-36.61141°
Altitude
449.062 km
Speed
7.644 km/s
True Right ascension
09h 33m 49s
True Declination
-4° 16' 43"
Sunlit
Object was in full shadow at epoch
Visualization orbit readout
Latitude
Unknown
Longitude
Unknown
Altitude
Unknown
Speed
Unknown
Apparent Right ascension
Unknown
Apparent Declination
Unknown
Sunlit
N/A
Visualization observer readout
Local Sidereal Time
13:58:57
Azimuth
Unknown
Elevation
Unknown
Doppler factor
Unknown
Orbital elements
Apogee altitude
448.106 km
Perigee altitude
447.108 km
Semi-major axis
6,825.744 km
Eccentricity
0.00007
Inclination
53.1593°
RAAN
146.6734°
Arg. of periapsis
102.1451°
True anomaly
252.60541°
Mean anomaly
252.6134°
Eccentric anomaly
252.6094°
Mean motion
3.84874 °/min
Orbital period
93.54 mins
BSTAR
0.0016064
Loading maneuver chart data...
Computing Atmospheric mass density...
Loading historical data...
Loading historical data...
Loading historical data...
Loading historical data...
Loading historical data...
Loading historical data...
Loading historical data...

Documentation

Showing up to 5 results
|